Showing default

GHGSAT-C8, 56186

Orbit data source: Space-Track

GHGSAT-C8, 56186 is a payload satellite owned by GHG (CA) in SSO that was launched on Sat, 15 Apr 2023 UTC via an FALCON 9 launch vehicle from the Air Force Western Test Range (AFWTR). Payload-class satellites include a variety of spacecraft equipped with specific instruments for various scientific and technological missions. These include communications satellites like Starlink; space stations such as the ISS; scientific satellites like the Hubble; Earth observation satellites from companies like Planet Labs, Umbra, and HawkEye 360; GPS; miniature CubeSats for education and research; and military/defense satellites.

Loading next visibility...
Identifier
56186, 2023-054J
Orbit
SSO
Country
Flag of CACA
Related business
Manufacturer
UTIAS-SFL
Mission
Operational Commercial Earth Obs Sci
Bus & Motor
NEMO-V1, Unknown motor
Mass
15 kg wet, 15 kg dry
Launch date (UTC)
2023-04-15 (3 years ago)
Launch vehicle
FALCON 9
Launch site
Air Force Western Test Range (AFWTR)
Object type
Payload
Rocket body
Debris
Shape & HBR
Box, 1.0 m
Radar Cross Section
0.100 m², Medium (>0.1 m² and < 1m²)

Expand to show TLE details & history
Last TLE update: 9 hours ago

TLE from 9 hours ago
0 GHGSAT-C8
1 56186U 23054J   26133.22448701  .00010623  00000-0  17861-3 0  9991
2 56186  97.3010  41.8740 0004882 161.4957 198.6474 15.51922501173019
Epoch: 2026-05-13T05:23Z
TLE epoch observation values (Epoch: 2026-05-13T05:23:15.677Z)
Latitude
-0.00005°
Longitude
90.07111°
Altitude
417.391 km
Speed
7.659 km/s
True Right ascension
02h 47m 29s
True Declination
0° 00' 00"
Sunlit
Object was in daylight at epoch
Visualization orbit readout
Latitude
Unknown
Longitude
Unknown
Altitude
Unknown
Speed
Unknown
Apparent Right ascension
Unknown
Apparent Declination
Unknown
Sunlit
N/A
Visualization observer readout
Local Sidereal Time
23:16:53
Azimuth
Unknown
Elevation
Unknown
Doppler factor
Unknown
Orbital elements
Apogee altitude
411.345 km
Perigee altitude
404.719 km
Semi-major axis
6,786.169 km
Eccentricity
0.00049
Inclination
97.301°
RAAN
41.874°
Arg. of periapsis
161.4957°
True anomaly
198.62952°
Mean anomaly
198.6474°
Eccentric anomaly
198.63846°
Mean motion
3.88245 °/min
Orbital period
92.72 mins
BSTAR
0.00017861
Loading maneuver chart data...
Computing Atmospheric mass density...
Loading historical data...
Loading historical data...
Loading historical data...
Loading historical data...
Loading historical data...
Loading historical data...
Loading historical data...

Documentation

Showing up to 5 results
|